CZ-4C R/B

Satellite information

Favourite Embed

Satellite Type and Status

ROCKET BODYIN ORBIT

Key statistics

Satellite CZ-4C R/B at a glance.

Uptime

1529

Days in orbit

Revolutions

≈ 13.6

Per day

Orbit

LEO

Low Earth Orbit

Inclination

63.4

Latest

Satellite identification and parameters

Extended collection of information and parameters for CZ-4C R/B.

Object identification

Identified? True

Debris? False

Object name: CZ-4C R/B

International designator: 2021-037B

Object number (NORAD): 48341

Object ID (CCSDS): 48341

Country: PEOPLES REPUBLIC OF CHINA (PRC)

Current information (Y/N): Y

RCS size: LARGE

Orbital parameters

Period: 105.902 minutes

Inclination: 63.4454 deg

SMA: 7414.759 km

Apoapsis: 1186.161 km

Periapsis: 887.087 km

RAAN: 221.0411 deg

Eccentricy: 0.0201675

Argument of periapsis: 11.1413 deg

Mean anomaly: 349.3988 deg

Mean motion: 13.59744136 rev/day

Mean motion (dot): -0.00000054 rev/day2

B* drag term: 0.000046813 1/REarth

Two-line elements (TLE)

Creation date: July 6, 2025, 6:05 p.m.

Reference frame: TEME

Reference center: EARTH

Epoch: July 6, 2025, 11:15 a.m. UTC

TLE line 0: 0 CZ-4C R/B

TLE line 1: 1 48341U 21037B 25187.46898616 -.00000054 00000-0 46813-4 0 9990

TLE line 2: 2 48341 63.4454 221.0411 0201675 11.1413 349.3988 13.59744136207771

Live tracking on map

Real-time ground track for satellite CZ-4C R/B.

In-orbit conjunctions

A list of the most updated potential collisions computed for object CZ-4C R/B.

Target Orbit TCA Probability of collision Miss distance Type
FENGYUN 1C DEB SSO 2024-07-01 06:57:57 0.0001618129 588.0 (m) DEBRIS

Associated space launch

Officially described as an optical remote-sensing satellite built by SAST.

CZ-4C R/B was lifted into orbit during the mission ‘Long March 4C | Yaogan 34’, on board a Long March 4C space rocket.

The launch took place on April 30, 2021, 7:27 a.m. from Launch Area 4 (SLS-2 / 603).

For more information about the launch, click the button.

Launch to space Long March 4C | Yaogan 34
Long March 4C | Yaogan 34

Agency: N/A

Status: Launch Successful

Launch date: April 30, 2021, 7:27 a.m. UTC

Rocket: Long March 4C

Launch pad: Launch Area 4 (SLS-2 / 603)

Location: Jiuquan Satellite Launch Center, People's Republic of China

...

Latest news about this satellite

News about space launch
China launches military observation satellite

China launched an optical Earth observation satellite April 30, beginning a mission designed to provide detailed reconnaissance imagery to the Chinese military.


Newsletter sign-up

Weekly statistics, charts and insights to help you stay on top of the space industry.